Tracking 18980 objects as of 21-Feb-2018
HD Live streaming from Space Station
objects crossing your sky now

NOAA 16 DEB

Track NOAA 16 DEB now!
10-day predictions


NORAD ID: 41403
Int'l Code: 2000-055KG
Perigee: 815.5 km
Apogee: 855.9 km
Inclination: 98.9 °
Period: 101.5 minutes
Semi major axis: 7206 km
RCS: Unknown
Launch date: September 21, 2000
Source: United States (US)
Launch site: AIR FORCE WESTERN TEST RANGE (AFWTR)

Note: This is SATELLITE DEBRIS
aabbcc
Your satellite tracking list
Your tracking list is empty




NASA's NSSDC Master Catalog

Two Line Element Set (TLE):
1 41403U 00055KG  18051.46033447  .00000723  00000-0  36647-3 0  9999
2 41403  98.8782 135.4709 0028068 309.2276  50.6408 14.19054685105471
Source of the keplerian elements: AFSPC